EHI
1 1 1 2 3 6 6 4 2 1 1 1 0 0 0 0 0 0 0 0 0 0 0 0 0 0 0 0 0 0 0 0 0 0 0 0 0 0 0 0 0 0 0
1 1 1 1 1 2 3 3 2 2 2 1 0 0 0 0 0 0 0 0 0 0 0 0 0 0 0 0 0 0 0 0 0 0 0 0 0 0 0 0 0 0 0
1 0 0 0 0 0 1 2 2 2 2 1 0 0 0 0 0 0 0 0 0 0 0 0 0 0 0 0 0 0 0 0 0 0 0 0 0 0 0 0 0 0 0
0 0 0 0 0 0 0 1 2 2 2 2 1 0 0 0 0 0 0 0 0 0 0 0 0 0 0 0 0 0 0 0 0 0 0 0 0 0 0 0 0 0 0
0 0 0 0 0 0 0 1 1 2 2 2 1 0 0 0 0 0 0 0 0 0 0 0 0 0 0 0 0 0 0 0 0 0 0 0 0 0 0 0 0 0 0
0 0 0 0 0 0 0 0 0 0 1 1 1 0 0 0 0 0 0 0 0 0 0 0 0 0 0 0 0 0 0 0 0 0 0 0 0 0 0 0 0 0 0
0 0 0 0 0 0 0 0 0 0 0 0 0 0 0 0 0 0 0 0 0 0 0 0 0 0 0 0 0 0 0 0 0 0 0 0 0 0 0 0 0 0 0
0 0 0 0 0 0 0 0 0 0 0 0 0 0 0 0 0 0 0 0 0 0 0 0 0 0 0 0 0 0 0 0 0 0 0 0 0 0 0 0 0 0 0
0 0 0 0 0 0 0 0 0 0 0 0 0 0 0 0 0 0 0 0 0 0 0 0 0 0 0 0 0 0 0 0 0 0 0 0 0 0 0 0 0 0 0
0 0 0 0 0 0 0 0 0 0 0 0 0 0 0 0 0 0 0 0 0 0 0 0 0 0 0 0 0 0 0 0 0 0 0 0 0 0 0 0 0 0 0
0 0 0 0 0 0 0 0 0 0 0 0 0 0 0 0 0 0 0 0 0 0 0 0 0 0 0 0 0 0 0 0 0 0 0 0 0 0 0 0 0 0 0
0 0 0 0 0 0 0 0 0 0 0 0 0 0 0 0 0 0 0 0 0 0 0 0 0 0 0 0 0 0 0 0 0 0 0 0 0 0 0 0 0 0 0
0 0 0 0 0 0 0 0 0 0 0 0 0 0 0 0 0 0 0 0 0 0 0 0 0 0 0 0 0 0 0 0 0 0 0 0 0 0 0 0 0 0 0
0 0 0 0 0 0 0 0 0 0 0 0 0 0 0 0 0 0 0 0 0 0 0 0 0 0 0 0 0 0 0 0 0 0 0 0 0 0 0 0 0 0 0
0 0 0 0 0 0 0 0 0 0 0 0 0 0 0 0 0 0 0 0 0 0 0 0 0 0 0 0 0 0 0 0 0 0 0 0 0 0 0 0 0 0 0
0 0 0 0 0 0 0 0 0 0 0 0 0 0 0 0 0 0 0 0 0 0 0 0 0 0 0 0 0 0 0 0 0 0 0 0 0 0 0 0 0 0 0
0 0 0 0 0 0 0 0 0 0 0 0 0 0 0 0 0 0 0 0 0 0 0 0 0 0 0 0 0 0 0 0 0 0 0 0 0 0 0 0 0 0 0
0 0 0 0 0 0 0 0 0 0 0 0 0 0 0 0 0 0 0 0 0 0 0 0 0 0 0 0 0 0 0 0 0 0 0 0 0 0 0 0 0 0 0
0 0 0 0 0 0 0 0 0 0 0 0 0 0 0 0 0 0 0 0 0 0 0 0 0 0 0 0 0 0 0 0 0 0 0 0 0 0 0 0 0 0 0
0 0 0 0 0 0 0 0 0 0 0 0 0 0 0 0 0 0 0 0 0 0 0 0 0 0 0 0 0 0 0 0 0 0 0 0 0 0 0 0 0 0 0
0 0 0 0 0 0 0 0 0 0 0 0 0 0 0 0 0 0 0 0 0 0 0 0 0 0 0 0 0 0 0 0 0 0 0 0 0 0 0 0 0 0 0
0 0 0 0 0 0 0 0 0 0 0 0 0 0 0 0 0 0 0 0 0 0 0 0 0 0 0 0 0 0 0 0 0 0 0 0 0 0 0 0 0 0 0
0 0 0 0 0 0 0 0 0 0 0 0 0 0 0 0 0 0 0 0 0 0 0 0 0 0 0 0 0 0 0 0 0 0 0 0 0 0 0 0 0 0 0
0 0 0 0 0 0 0 0 0 0 0 0 0 0 0 0 0 0 0 0 0 0 0 0 0 0 0 0 0 0 0 0 0 0 0 0 0 0 0 0 0 0 0
0 0 0 0 0 0 0 0 0 0 0 0 0 0 0 0 0 0 0 0 0 0 0 0 0 0 0 0 0 0 0 0 0 0 0 0 0 0 0 0 0 0 0
0 0 0 0 0 0 0 0 0 0 0 0 0 0 0 0 0 0 0 0 0 0 0 0 0 0 0 0 0 0 0 0 0 0 0 0 0 0 0 0 0 0 0
Wind_Speed
5 5 4 4 6 6 7 7 8 9 10 10 9 10 10 10 8 7 5 9 10 10 11 11 11 12 12 11 10 10 10 9 9 9 8 8 7 7 6 5 5 4 4
5 5 5 5 5 6 6 7 8 8 7 7 9 10 10 9 9 9 7 8 10 10 11 12 12 12 13 12 12 11 10 10 9 9 9 9 9 8 8 7 7 6 6
5 5 5 5 6 6 7 7 8 7 7 7 8 9 8 9 9 9 8 7 7 10 11 12 12 12 12 13 13 12 11 10 10 9 9 9 9 9 9 8 8 7 7
5 5 5 6 6 6 6 6 7 7 7 7 7 7 7 7 10 9 8 7 7 6 9 11 11 11 12 13 13 13 12 11 10 9 9 9 8 9 9 9 9 9 8
5 5 5 5 6 6 6 6 6 6 7 7 7 6 6 7 8 8 9 9 8 7 7 8 10 10 10 12 13 13 13 12 11 11 11 10 10 10 10 10 10 10 10
4 5 4 5 6 5 6 6 7 6 6 6 6 6 6 7 7 7 8 8 7 8 8 8 8 8 10 10 12 13 13 12 12 12 12 12 12 12 12 12 12 12 11
5 4 4 5 5 5 6 7 6 7 6 5 5 5 5 7 7 6 7 7 7 8 8 8 7 6 6 11 11 12 12 13 13 13 13 13 13 13 13 13 13 13 12
5 4 5 4 5 5 6 6 6 5 5 5 5 4 4 5 6 6 6 7 7 7 8 8 8 8 7 6 6 9 10 12 14 14 13 14 14 14 14 14 14 14 14
4 4 5 4 4 5 5 5 6 7 6 5 5 4 4 5 3 5 8 7 7 6 7 7 9 9 8 6 5 7 9 10 13 15 14 14 15 15 16 16 16 15 15
5 4 5 5 5 4 5 5 6 5 6 5 5 5 4 2 3 4 5 6 7 7 7 6 8 8 8 7 6 6 7 9 13 15 16 16 15 16 17 17 16 16 15
4 4 4 4 5 4 5 5 6 6 5 6 5 4 5 4 5 5 5 5 5 6 6 7 6 6 7 7 6 7 7 10 13 14 15 17 16 16 16 16 16 16 16
3 4 4 4 4 4 5 5 5 6 5 6 5 5 5 5 5 6 6 5 5 5 5 5 5 5 5 6 7 6 7 10 12 14 15 16 16 15 16 17 16 16 16
4 4 5 4 4 4 4 4 5 5 6 6 6 6 5 6 5 5 6 5 5 4 4 5 5 5 4 4 5 6 8 9 11 13 15 15 15 14 14 16 16 16 16
4 5 6 5 5 5 4 5 4 5 4 5 6 6 5 5 5 5 5 5 5 5 5 6 4 5 4 5 5 7 6 8 10 12 14 13 12 13 12 13 14 14 14
4 5 5 5 5 5 5 5 4 5 5 5 5 5 6 5 5 5 5 5 5 6 6 5 4 4 4 4 5 6 6 7 9 11 11 11 11 12 12 12 12 13 13
5 5 5 5 5 5 5 5 5 5 5 5 4 5 6 5 5 4 4 5 5 6 6 4 4 4 4 4 5 6 7 7 8 10 10 11 11 12 13 13 13 13 13
5 5 5 5 5 5 5 5 5 5 6 5 5 5 6 6 5 4 4 4 5 5 7 5 4 4 5 5 5 6 6 6 6 8 10 11 11 12 13 13 13 14 14
5 5 4 4 5 5 5 5 5 5 6 6 6 6 6 5 5 5 4 5 5 6 6 7 5 4 6 6 6 6 6 6 6 8 10 11 12 13 14 14 14 14 14
5 4 4 4 4 4 4 5 5 5 5 5 5 5 5 6 5 4 5 5 4 4 5 5 5 4 4 4 5 6 6 6 7 7 9 10 12 13 15 15 15 15 15
5 4 4 4 3 3 3 4 4 4 4 4 4 4 5 5 5 5 4 4 4 4 4 5 4 4 4 4 4 4 5 6 6 6 7 8 10 13 14 15 15 15 15
4 4 3 3 3 2 2 3 3 3 3 3 3 3 3 2 2 3 3 3 3 3 3 3 4 4 4 3 4 4 6 6 7 5 5 6 7 8 8 11 13 14 14
4 3 3 3 3 2 2 3 3 2 3 3 3 3 2 2 1 2 3 3 4 4 4 4 4 5 5 5 5 5 5 6 6 3 5 7 6 7 7 7 9 11 13
3 3 3 3 3 3 3 2 2 2 2 2 3 3 2 1 2 3 2 3 3 4 5 5 6 6 5 5 6 6 6 7 8 6 6 8 7 8 7 7 10 11 12
3 3 3 3 3 3 3 2 2 2 2 2 2 3 3 2 2 3 2 2 2 3 3 4 5 5 5 5 6 7 7 8 8 6 6 7 6 7 7 8 10 11 12
3 3 3 3 3 3 3 2 2 1 1 2 2 2 3 3 2 3 3 3 3 3 2 3 5 5 6 6 6 4 5 5 6 5 4 5 6 7 7 7 7 8 11
3 2 2 2 2 3 3 3 3 1 1 2 2 2 2 3 3 3 3 3 3 4 4 4 4 4 5 5 6 5 5 5 5 5 4 4 5 5 6 5 5 6 7
Wind_Direction
246 240 242 236 229 226 219 219 218 216 215 217 218 218 216 216 216 216 199 187 208 219 221 220 218 215 214 216 217 217 216 219 222 224 226 230 232 238 245 253 261 273 284
251 246 242 240 237 232 229 224 221 220 219 219 222 221 221 220 221 220 221 197 203 217 223 224 224 223 219 218 220 220 221 223 227 230 232 236 238 240 243 248 254 261 267
255 248 243 239 239 235 231 230 225 221 221 218 225 228 227 225 223 223 223 220 209 209 219 226 227 228 226 225 224 223 224 225 228 232 235 239 243 245 246 249 252 259 262
262 254 248 242 241 238 230 228 225 218 218 218 222 222 227 228 227 226 224 221 221 217 211 218 226 229 229 229 227 224 224 223 225 229 233 237 242 247 250 252 252 256 259
266 257 254 254 246 239 232 228 225 221 219 219 223 224 223 225 228 225 226 225 223 222 223 204 212 225 229 231 232 230 226 225 226 230 234 239 243 248 251 253 254 257 259
269 260 256 255 248 240 235 230 227 222 224 222 224 228 226 225 226 224 225 225 223 223 226 225 216 216 222 231 235 237 237 234 231 232 235 239 243 248 251 253 254 256 258
271 259 256 255 249 239 237 236 231 225 223 219 222 229 232 229 227 224 221 223 223 224 225 227 226 226 216 218 231 239 244 245 240 237 237 239 242 247 250 253 255 255 257
272 265 256 252 251 245 239 237 233 229 225 218 219 218 225 226 223 225 222 222 226 225 226 227 227 227 230 224 212 224 242 250 249 245 242 242 243 246 248 250 252 254 256
282 275 266 261 255 247 243 238 233 233 226 221 221 220 217 224 220 215 223 222 223 224 226 225 228 230 230 230 229 216 229 245 252 251 248 248 248 248 248 249 250 252 254
292 284 273 266 258 250 249 243 235 235 231 226 221 230 240 249 228 222 216 219 225 229 230 229 229 229 231 232 232 241 231 238 249 255 254 252 253 253 253 253 252 253 254
305 303 290 279 267 257 253 247 240 234 232 232 227 224 232 238 236 237 234 225 225 228 230 231 235 232 231 233 238 242 236 240 248 255 260 257 255 257 258 259 258 257 256
309 309 299 285 275 269 261 249 241 235 235 236 236 231 225 224 221 231 237 234 236 234 234 233 232 234 236 240 244 246 240 241 248 253 259 264 261 259 260 260 261 260 258
303 305 295 284 272 265 261 256 248 242 235 234 236 236 235 236 237 237 241 242 247 248 244 237 232 229 231 238 245 242 241 242 248 253 257 264 268 265 263 262 262 263 262
296 302 295 283 271 262 256 250 245 245 241 237 240 242 243 244 242 238 237 238 244 246 241 240 238 232 229 238 244 244 248 242 248 254 259 264 272 271 264 264 263 263 262
290 292 293 283 275 265 254 249 241 241 242 242 242 243 244 245 245 246 240 234 238 246 243 239 240 232 241 253 245 246 254 251 250 252 254 260 267 270 264 263 263 261 259
293 290 293 280 270 266 258 245 242 239 239 242 242 241 241 243 242 238 234 233 238 246 253 251 255 259 259 264 261 261 259 258 251 251 254 258 261 265 261 262 263 262 259
298 294 288 284 273 268 262 251 242 240 238 240 238 240 242 244 246 241 238 235 236 241 251 260 265 265 266 264 267 268 269 266 258 252 256 259 262 264 262 260 262 263 261
301 295 285 283 279 272 266 259 249 243 241 242 241 239 243 244 246 245 240 238 240 242 248 258 266 267 271 273 275 277 277 274 271 265 257 259 260 261 262 260 260 260 260
301 298 291 285 283 280 275 265 254 249 247 249 250 247 246 241 242 245 243 242 249 254 254 257 265 270 270 273 281 282 284 282 280 273 263 257 260 264 262 258 257 257 257
301 301 295 286 283 283 287 278 263 257 254 256 255 253 251 246 247 248 244 244 248 251 252 254 261 266 270 277 281 283 287 288 286 282 274 272 270 266 259 256 255 254 254
309 304 298 290 288 288 299 296 286 274 262 260 262 262 259 263 269 262 259 257 250 246 248 254 259 266 269 280 281 284 283 290 286 277 283 282 279 273 263 254 251 251 254
321 322 319 310 299 298 324 313 298 290 281 267 263 264 263 249 245 256 265 272 267 256 257 256 259 259 272 279 287 284 285 287 284 283 291 286 281 277 273 265 263 260 258
321 325 330 328 324 317 308 306 306 290 294 284 270 262 263 272 259 256 261 262 264 272 267 262 259 263 273 280 282 279 278 281 279 289 293 281 279 274 279 279 278 268 263
310 319 324 321 320 336 325 305 308 293 300 311 303 277 265 266 265 264 264 269 277 287 281 268 266 273 280 285 280 277 280 283 284 281 277 275 281 283 288 281 274 266 266
301 310 314 316 321 333 348 342 321 295 300 306 304 304 286 267 282 280 268 269 284 296 305 294 291 287 290 291 288 280 280 284 287 285 283 276 285 291 285 276 276 276 273
292 300 304 308 312 322 349 346 328 298 305 307 309 306 311 301 300 294 276 274 281 295 304 304 296 293 291 289 289 275 275 276 286 282 281 288 288 302 292 275 279 284 278